Location: �clusier
(49.9361°N, 2.7869°E)
Time: 07:16:29
(UTC+00:00)

USA 267 - Pass Details

Date: 16 June 2021
Orbit: 1102 x 1106 km, 123.0° (Epoch: 01 August)

Event Time Altitude Azimuth Distance (km) Brightness Sun altitude
Exits shadow 22:12:27 - 112° (ESE) 3,362 5.4 -13.6°
Reaches altitude 10° 22:13:30 10° 112° (ESE) 2,958 5.1 -13.6°
Maximum altitude 22:20:01 79° 28° (NNE) 1,128 3.4 -14.0°
Drops below altitude 10° 22:26:35 10° 303° (WNW) 2,969 6.3 -14.4°
Sets 22:29:04 0° 302° (WNW) 3,929 7.0 -14.5°
